Content
SEND FEEDBACK

Daily
Averages
Monthly
Summary
United States of America

BOONVILLE, MISSOURI


Home > North America > United States > Missouri
Elevation: 642 feet     Latitude: 38 58N     Longitude: 092 45W

WEATHER
 
SELECT A DAY
Number of Records: 87,293;   Date Range: 12/3/10 - 8/29/14
 
SHARE

PRINT THIS DATA

[ ← Previous Day ]
WEATHER ALMANAC - JANUARY 6, 2013
[ Next Day → ]
[ °C ]   °F
Weather ElementAverageHighLow
Temperature29.8 °F35.1 °F (3:35 pm)23 °F (11:35 pm)
Dewpoint21.4 °F27.3 °F (12:35 am)18.3 °F (9:55 am)
Humidity71.4 %85 % (11:35 pm)58 % (3:35 pm)
Barometer30.29 in30.36 in (10:15 am)30.13 in (12:35 am)
Wind Speed6.3 mph13.8 mph (3:55 am)
Wind Gust21.9 mph (3:55 am)
Weather ElementAverage
Visibility10 mi
Wind DirectionSSW (215.8 °)

Weather ElementTotal
Precipitation---
Heating Degree Days36 (Base 65)
Averaged from 67 records on January 6, 2013
WEATHER CONDITIONS BREAKOUT
WIND DIRECTION BREAKOUT
WEATHER BY HOUR - JANUARY 6, 2013
[ °C ]   °F
Local TimeTemperatureDewpointHumidityBarometerVisibilityWind DirectionWind SpeedGust SpeedPrecipitationEventsConditions
12:35 AM34.0 °F27.3 °F77 %30.13 in10.0 miWest (260°)5.8 mphClear
12:55 AM33.1 °F27.0 °F78 %30.13 in10.0 miWest (260°)4.6 mphClear
1:15 AM32.4 °F26.4 °F79 %30.13 in10.0 miWest (260°)4.6 mphClear
1:35 AM32.0 °F25.9 °F78 %30.13 in10.0 miWest (260°)8.1 mphClear
1:55 AM32.0 °F25.3 °F76 %30.14 in10.0 miWest (260°)4.6 mphClear
2:15 AM32.0 °F24.6 °F74 %30.14 in10.0 miWest (270°)11.5 mph16.1 mphClear
2:35 AM32.0 °F23.9 °F72 %30.15 in10.0 miWest (280°)12.7 mph19.6 mphClear
2:55 AM32.0 °F23.7 °F71 %30.16 in10.0 miWest (280°)8.1 mphScattered Clouds
3:15 AM32.0 °F24.1 °F73 %30.16 in10.0 miWNW (300°)11.5 mph16.1 mphOvercast
3:35 AM31.6 °F24.1 °F74 %30.16 in10.0 miNW (310°)10.4 mphOvercast
3:55 AM30.9 °F23.2 °F73 %30.17 in10.0 miNW (320°)13.8 mph21.9 mphOvercast
4:15 AM30.2 °F22.3 °F72 %30.18 in10.0 miNW (310°)10.4 mphOvercast
4:35 AM30.0 °F21.4 °F70 %30.19 in10.0 miWNW (300°)10.4 mph18.4 mphOvercast
4:55 AM30.0 °F21.0 °F69 %30.19 in10.0 miWNW (300°)8.1 mphOvercast
5:15 AM30.2 °F21.4 °F70 %30.20 in10.0 miWNW (290°)9.2 mphOvercast
5:35 AM30.0 °F21.7 °F71 %30.21 in10.0 miWNW (290°)11.5 mph17.3 mphOvercast
6:15 AM29.7 °F22.1 °F73 %30.23 in10.0 miWNW (300°)8.1 mph17.3 mphOvercast
6:35 AM29.5 °F22.5 °F75 %30.25 in10.0 miWNW (290°)9.2 mphOvercast
7:15 AM29.1 °F22.1 °F75 %30.25 in10.0 miWNW (290°)9.2 mph16.1 mphOvercast
7:35 AM28.6 °F22.1 °F77 %30.27 in10.0 miWNW (300°)8.1 mphOvercast
7:55 AM27.7 °F20.8 °F75 %30.28 in10.0 miWNW (290°)10.4 mph18.4 mphOvercast
8:35 AM24.8 °F19.0 °F79 %30.31 in10.0 miWNW (290°)10.4 mphOvercast
8:55 AM24.6 °F18.7 °F78 %30.32 in10.0 miNW (310°)11.5 mph16.1 mphOvercast
9:15 AM25.0 °F18.7 °F77 %30.33 in10.0 miNW (310°)9.2 mphOvercast
9:35 AM25.5 °F18.5 °F75 %30.33 in10.0 miNW (310°)11.5 mph17.3 mphMostly Cloudy
9:55 AM26.2 °F18.3 °F72 %30.34 in10.0 miNW (310°)10.4 mphOvercast
10:15 AM26.8 °F18.5 °F71 %30.36 in10.0 miWNW (300°)8.1 mphMostly Cloudy
10:35 AM27.0 °F18.7 °F71 %30.36 in10.0 miWNW (300°)10.4 mphScattered Clouds
10:55 AM27.7 °F19.0 °F70 %30.36 in10.0 miWNW (300°)11.5 mphClear
11:15 AM28.2 °F18.9 °F68 %30.35 in10.0 miWest (280°)8.1 mphClear
11:35 AM28.9 °F19.4 °F68 %30.35 in10.0 miWest (280°)9.2 mphClear
11:55 AM29.8 °F19.6 °F66 %30.34 in10.0 miWNW (300°)9.2 mphClear
12:15 PM30.4 °F20.3 °F66 %30.34 in10.0 miWNW (290°)8.1 mphClear
12:35 PM31.1 °F20.8 °F66 %30.33 in10.0 miWest (270°)10.4 mphClear
12:55 PM32.0 °F21.4 °F65 %30.33 in10.0 miWest (260°)6.9 mphClear
1:15 PM32.5 °F21.4 °F64 %30.33 in10.0 miWest (280°)6.9 mphClear
1:35 PM33.1 °F21.6 °F63 %30.32 in10.0 miNW (310°)8.1 mphClear
1:55 PM33.6 °F21.6 °F61 %30.33 in10.0 miNW (310°)6.9 mphClear
2:15 PM34.2 °F21.7 °F60 %30.33 in10.0 miNW (310°)8.1 mphClear
2:35 PM34.5 °F21.7 °F60 %30.33 in10.0 miNW (310°)5.8 mphClear
2:55 PM34.9 °F21.7 °F59 %30.34 in10.0 miWNW (290°)5.8 mphClear
3:15 PM34.9 °F21.7 °F59 %30.34 in10.0 miNW (310°)4.6 mph
3:35 PM35.1 °F21.7 °F58 %30.34 in10.0 miNW (310°)4.6 mph
3:55 PM34.9 °F21.7 °F59 %30.34 in10.0 miNW (310°)4.6 mphClear
4:15 PM34.7 °F21.6 °F59 %30.34 in10.0 miCalmClear
4:35 PM34.2 °F21.6 °F60 %30.34 in10.0 miCalmClear
4:55 PM33.8 °F21.6 °F61 %30.34 in10.0 miCalmClear
5:15 PM33.3 °F21.2 °F61 %30.34 in10.0 miCalmClear
5:35 PM32.9 °F21.0 °F62 %30.34 in10.0 miCalmClear
5:55 PM31.5 °F21.2 °F66 %30.35 in10.0 miCalmClear
6:15 PM30.2 °F21.0 °F69 %30.35 in10.0 miCalmClear
6:35 PM29.7 °F21.2 °F71 %30.36 in10.0 miCalmClear
6:55 PM29.7 °F21.2 °F71 %30.36 in10.0 miCalmClear
7:15 PM28.6 °F21.2 °F74 %30.35 in10.0 miCalmClear
7:35 PM28.6 °F21.2 °F74 %30.36 in10.0 miCalmClear
7:55 PM28.6 °F20.8 °F73 %30.35 in10.0 miCalmClear
8:15 PM27.0 °F20.5 °F77 %30.35 in10.0 miSE (140°)4.6 mphClear
8:35 PM25.9 °F20.3 °F79 %30.35 in10.0 miSSE (150°)4.6 mphClear
8:55 PM25.0 °F19.9 °F81 %30.35 in10.0 miSouth (170°)3.5 mphClear
9:15 PM25.2 °F20.1 °F81 %30.35 in10.0 miSouth (170°)4.6 mphClear
9:35 PM25.2 °F20.1 °F81 %30.35 in10.0 miSSE (160°)4.6 mphClear
9:55 PM25.0 °F19.9 °F81 %30.34 in10.0 miSSE (160°)4.6 mphClear
10:15 PM25.0 °F19.8 °F81 %30.34 in10.0 miCalmClear
10:35 PM25.5 °F20.1 °F80 %30.35 in10.0 miSouth (170°)3.5 mphClear
10:55 PM24.4 °F19.6 °F82 %30.35 in10.0 miSSE (160°)3.5 mphClear
11:35 PM23.0 °F19.2 °F85 %30.34 in10.0 miSSE (160°)4.6 mphClear
11:55 PM23.0 °F19.2 °F85 %30.33 in10.0 miSSE (150°)3.5 mphClear
Hourly data recorded from KVER, located miles away from Boonville, Missouri







STORIES FROM OUR PARTNERS